WORLDVIEW 2 DEB, 41742

Orbit data source: Space-Track

WORLDVIEW 2 DEB, 41742 is space debris in SSO originally from a launch on Thu, 08 Oct 2009 UTC launched from the Air Force Western Test Range (AFWTR). Debris objects in space refer to the collection of defunct objects orbiting the Earth. Examples of debris include non-operational satellites, rocket bodies, and fragments generated from explosions, collisions, or faulty payload assembly.

Loading next visibility...
Identifier
41742, 2009-055K
Orbit
SSO
Country
Flag of USUS
Related business
Manufacturer
Ball
Mission
Spacecraft
Bus & Motor
Unknown
Mass
Unknown
Launch date (UTC)
2009-10-08 (16 years ago)
Launch vehicle
Unknown
Launch site
Air Force Western Test Range (AFWTR)
Object type
Payload
Rocket body
Debris
Shape & HBR
Unknown shape, 0.1 m
Radar Cross Section
Small (<0.1 m²)

Expand to show TLE details & history
Last TLE update: 14 hours ago

TLE from 14 hours ago
0 WORLDVIEW 2 DEB
1 41742U 09055K   25303.71081934  .00005415  00000-0  12344-2 0  9994
2 41742  98.3593  32.1511 0008749 188.5525 171.5525 14.56214466488681
Epoch: 2025-10-30T17:03Z
TLE epoch observation values (Epoch: 2025-10-30T17:03:34.790Z)
Latitude
-0.00003°
Longitude
96.99045°
Altitude
714.53 km
Speed
7.495 km/s
True Right ascension
02h 08m 36s
True Declination
0° 00' 00"
Sunlit
Object was in full shadow at epoch
Visualization orbit readout
Latitude
Unknown
Longitude
Unknown
Altitude
Unknown
Speed
Unknown
Apparent Right ascension
Unknown
Apparent Declination
Unknown
Sunlit
N/A
Visualization observer readout
Local Sidereal Time
02:16:45
Azimuth
Unknown
Elevation
Unknown
Doppler factor
Unknown
Orbital elements
Apogee altitude
708.712 km
Perigee altitude
696.322 km
Semi-major axis
7,080.654 km
Eccentricity
0.00087
Inclination
98.3593°
RAAN
32.1511°
Arg. of periapsis
188.5525°
True anomaly
171.56721°
Mean anomaly
171.5525°
Eccentric anomaly
171.55986°
Mean motion
3.64278 °/min
Orbital period
98.83 mins
BSTAR
0.0012344
Loading maneuver chart data...
Computing Atmospheric mass density...

Documentation

Showing up to 5 results
|